Location: Unspecified
(0.0000°N, 0.0000°E)
Time: 03:06:10
(UTC+00:00)

PCSat - Pass Details

Date: 16 December 2017
Orbit: 785 x 795 km, 67.1° (Epoch: 26 April)

Event Time Altitude Azimuth Distance (km) Brightness Sun altitude
Exits shadow 04:53:33 - 344° (NNW) 2,641 11.9 -14.2°
Reaches altitude 10° 04:54:19 10° 345° (NNW) 2,349 11.7 -14.0°
Maximum altitude 04:59:43 78° 71° (ENE) 812 9.7 -12.8°
Drops below altitude 10° 05:05:08 10° 157° (SSE) 2,362 12.8 -11.6°
Sets 05:07:33 0° 158° (SSE) 3,293 13.5 -11.0°
